Location: Hackbridge
(51.3833°N, 0.1500°W)
Time: 15:33:48
(UTC+00:00)

STARLINK-59 - Pass Details

Date: 13 October 2019
Orbit: 548 x 551 km, 53.0° (Epoch: 21 November)

Event Time Altitude Azimuth Distance (km) Brightness Sun altitude
Rises 19:45:21 0° 251° (WSW) 2,714 7.9 -24.4°
Reaches altitude 10° 19:47:35 10° 251° (WSW) 1,822 6.9 -24.7°
Enters shadow 19:50:52 55° 250° (WSW) 665 4.1 -25.2°
